When you browse on this site, cookies collect data to enhance your experience and personalize the content and advertising you see.
Visit our Privacy Policy to learn more. By continuing to use the site, you agree to this use of cookies and data.
  • In Austria
  • List of Countries
  • For 7 days
  • Water Temperature
  • Satellite Maps
  • Weather Map
  • News
  • Weather Widgets
  • user-avatar
    Login

    Hourly Weather Kabare

    Today, 21 November, Wednesday

    Time Temperature Precipitation Wind Pressure Humidity
    00:00 +18°C° 0.1 mm 1 mps 623 mmHg 85%
    01:00 +16°C° 0.1 mm 1 mps 623 mmHg 86%
    02:00 +16°C° 0 mm 1 mps 623 mmHg 86%
    03:00 +16°C° 0 mm 1 mps 623 mmHg 86%
    04:00 +16°C° 0 mm 1 mps 623 mmHg 85%
    05:00 +15°C° 0 mm 1 mps 623 mmHg 84%
    06:00 +19°C° 0 mm 1 mps 624 mmHg 75%
    07:00 +20°C° 0 mm 0 mps 625 mmHg 65%
    08:00 +23°C° 0 mm 0 mps 626 mmHg 53%
    09:00 +24°C° 0.1 mm 0 mps 626 mmHg 50%
    10:00 +28°C° 0.1 mm 1 mps 626 mmHg 47%
    11:00 +29°C° 0.1 mm 1 mps 626 mmHg 45%
    12:00 +28°C° 0.5 mm 1 mps 625 mmHg 49%
    13:00 +28°C° 0.5 mm 1 mps 625 mmHg 53%
    14:00 +27°C° 0.5 mm 1 mps 624 mmHg 57%
    15:00 +26°C° 0.9 mm 1 mps 623 mmHg 61%
    16:00 +25°C° 0.9 mm 1 mps 623 mmHg 66%
    17:00 +24°C° 0.9 mm 1 mps 623 mmHg 70%
    18:00 +22°C° 0.9 mm 1 mps 623 mmHg 75%
    19:00 +21°C° 0.9 mm 1 mps 623 mmHg 79%
    20:00 +17°C° 0.9 mm 0 mps 623 mmHg 83%
    21:00 +19°C° 0.2 mm 1 mps 623 mmHg 84%
    22:00 +18°C° 0.2 mm 1 mps 623 mmHg 84%
    23:00 +18°C° 0.2 mm 1 mps 623 mmHg 85%

    Tomorrow, 22 November, Thursday

    Time Temperature Precipitation Wind Pressure Humidity
    00:00 +18°C° 0 mm 1 mps 623 mmHg 85%
    01:00 +18°C° 0 mm 1 mps 623 mmHg 84%
    02:00 +18°C° 0 mm 1 mps 622 mmHg 84%
    03:00 +18°C° 0 mm 1 mps 622 mmHg 83%
    04:00 +18°C° 0 mm 1 mps 623 mmHg 82%
    05:00 +16°C° 0 mm 0 mps 623 mmHg 81%
    06:00 +17°C° 0 mm 0 mps 623 mmHg 76%
    07:00 +19°C° 0 mm 0 mps 624 mmHg 71%
    08:00 +20°C° 0 mm 0 mps 625 mmHg 66%
    09:00 +23°C° 0.2 mm 1 mps 625 mmHg 63%
    10:00 +25°C° 0.2 mm 1 mps 626 mmHg 61%
    11:00 +26°C° 0.2 mm 1 mps 626 mmHg 58%
    12:00 +25°C° 0.6 mm 1 mps 625 mmHg 61%
    13:00 +25°C° 0.6 mm 1 mps 624 mmHg 64%
    14:00 +24°C° 0.6 mm 1 mps 624 mmHg 67%
    15:00 +23°C° 0.3 mm 1 mps 623 mmHg 70%
    16:00 +22°C° 0.3 mm 1 mps 623 mmHg 73%
    17:00 +21°C° 0.3 mm 1 mps 623 mmHg 76%
    18:00 +20°C° 0.2 mm 1 mps 623 mmHg 79%
    19:00 +19°C° 0.2 mm 1 mps 623 mmHg 82%
    20:00 +18°C° 0.2 mm 1 mps 624 mmHg 86%
    21:00 +18°C° 0 mm 1 mps 624 mmHg 86%
    22:00 +18°C° 0 mm 1 mps 624 mmHg 86%
    23:00 +18°C° 0 mm 1 mps 624 mmHg 87%

    Day after tomorrow, 23 November, Friday

    Time Temperature Precipitation Wind Pressure Humidity
    00:00 +16°C° 0.1 mm 1 mps 624 mmHg 86%
    01:00 +16°C° 0.1 mm 1 mps 623 mmHg 86%
    02:00 +16°C° 0.1 mm 1 mps 623 mmHg 86%
    03:00 +16°C° 0.1 mm 1 mps 623 mmHg 86%
    04:00 +16°C° 0.1 mm 1 mps 623 mmHg 86%
    05:00 +16°C° 0.1 mm 1 mps 623 mmHg 85%
    06:00 +18°C° 0.1 mm 1 mps 623 mmHg 80%
    07:00 +18°C° 0.1 mm 0 mps 624 mmHg 75%
    08:00 +19°C° 0.1 mm 0 mps 625 mmHg 70%
    09:00 +21°C° 0.1 mm 0 mps 626 mmHg 64%
    10:00 +25°C° 0.1 mm 1 mps 626 mmHg 58%
    11:00 +27°C° 0.1 mm 1 mps 626 mmHg 52%
    12:00 +26°C° 0.3 mm 1 mps 626 mmHg 54%
    13:00 +26°C° 0.3 mm 1 mps 625 mmHg 56%
    14:00 +26°C° 0.3 mm 1 mps 624 mmHg 58%
    15:00 +24°C° 0.6 mm 1 mps 624 mmHg 63%
    16:00 +23°C° 0.6 mm 1 mps 623 mmHg 68%
    17:00 +22°C° 0.6 mm 1 mps 623 mmHg 73%
    18:00 +20°C° 0.5 mm 1 mps 623 mmHg 76%
    19:00 +19°C° 0.5 mm 1 mps 623 mmHg 79%
    20:00 +18°C° 0.5 mm 1 mps 624 mmHg 83%
    21:00 +18°C° 0.1 mm 1 mps 624 mmHg 83%
    22:00 +18°C° 0.1 mm 1 mps 624 mmHg 83%
    23:00 +16°C° 0.1 mm 1 mps 624 mmHg 84%

    24 November, Saturday

    Time Temperature Precipitation Wind Pressure Humidity
    00:00 +16°C° 0.1 mm 1 mps 624 mmHg 84%
    01:00 +16°C° 0.1 mm 1 mps 623 mmHg 84%
    02:00 +16°C° 0.1 mm 1 mps 623 mmHg 84%
    03:00 +16°C° 0.1 mm 1 mps 623 mmHg 84%
    04:00 +16°C° 0.1 mm 1 mps 623 mmHg 84%
    05:00 +16°C° 0.1 mm 1 mps 623 mmHg 83%
    06:00 +18°C° 0.1 mm 1 mps 624 mmHg 77%
    07:00 +20°C° 0.1 mm 1 mps 625 mmHg 70%
    08:00 +22°C° 0.1 mm 1 mps 626 mmHg 64%
    09:00 +24°C° 0.1 mm 1 mps 626 mmHg 56%
    10:00 +26°C° 0.1 mm 1 mps 626 mmHg 49%
    11:00 +28°C° 0.1 mm 1 mps 627 mmHg 42%
    12:00 +28°C° 0 mm 1 mps 626 mmHg 44%
    13:00 +27°C° 0 mm 1 mps 625 mmHg 46%
    14:00 +27°C° 0 mm 1 mps 624 mmHg 48%
    15:00 +26°C° 0.1 mm 1 mps 624 mmHg 53%
    16:00 +25°C° 0.1 mm 1 mps 623 mmHg 58%
    17:00 +23°C° 0.1 mm 1 mps 623 mmHg 62%
    18:00 +22°C° 0.2 mm 1 mps 623 mmHg 67%
    19:00 +20°C° 0.2 mm 1 mps 624 mmHg 72%
    20:00 +19°C° 0.2 mm 1 mps 624 mmHg 77%
    21:00 +19°C° 0.1 mm 1 mps 624 mmHg 77%
    22:00 +18°C° 0.1 mm 1 mps 624 mmHg 77%
    23:00 +18°C° 0.1 mm 1 mps 624 mmHg 77%

    25 November, Sunday

    Time Temperature Precipitation Wind Pressure Humidity
    00:00 +16°C° 0 mm 1 mps 624 mmHg 78%
    01:00 +16°C° 0 mm 1 mps 623 mmHg 79%
    02:00 +16°C° 0 mm 1 mps 622 mmHg 80%
    03:00 +16°C° 0 mm 1 mps 622 mmHg 81%
    04:00 +15°C° 0 mm 1 mps 622 mmHg 83%
    05:00 +15°C° 0 mm 1 mps 622 mmHg 84%
    06:00 +18°C° 0 mm 1 mps 623 mmHg 76%
    07:00 +21°C° 0 mm 1 mps 625 mmHg 68%
    08:00 +23°C° 0 mm 1 mps 626 mmHg 60%
    09:00 +25°C° 0 mm 1 mps 626 mmHg 53%
    10:00 +27°C° 0 mm 1 mps 626 mmHg 46%
    11:00 +29°C° 0 mm 1 mps 626 mmHg 39%
    12:00 +29°C° 0.1 mm 1 mps 625 mmHg 43%
    13:00 +28°C° 0.1 mm 1 mps 624 mmHg 47%
    14:00 +28°C° 0.1 mm 1 mps 623 mmHg 51%
    15:00 +27°C° 0.7 mm 1 mps 623 mmHg 57%
    16:00 +25°C° 0.7 mm 1 mps 623 mmHg 62%
    17:00 +24°C° 0.7 mm 1 mps 622 mmHg 67%
    18:00 +22°C° 0.9 mm 1 mps 623 mmHg 73%
    19:00 +21°C° 0.9 mm 1 mps 623 mmHg 78%
    20:00 +19°C° 0.9 mm 1 mps 623 mmHg 84%
    21:00 +19°C° 0.4 mm 1 mps 623 mmHg 86%
    22:00 +18°C° 0.4 mm 1 mps 623 mmHg 87%
    23:00 +18°C° 0.4 mm 1 mps 623 mmHg 89%

    26 November, Monday

    Time Temperature Precipitation Wind Pressure Humidity
    00:00 +18°C° 0.1 mm 1 mps 623 mmHg 90%
    01:00 +16°C° 0.1 mm 1 mps 622 mmHg 90%
    02:00 +16°C° 0.1 mm 1 mps 622 mmHg 91%
    03:00 +16°C° 0 mm 1 mps 622 mmHg 91%
    04:00 +16°C° 0 mm 1 mps 622 mmHg 91%
    05:00 +15°C° 0 mm 1 mps 622 mmHg 91%
    06:00 +18°C° 0 mm 1 mps 623 mmHg 81%
    07:00 +20°C° 0 mm 1 mps 624 mmHg 72%
    08:00 +20°C° 0 mm 0 mps 625 mmHg 63%
    09:00 +24°C° 0.1 mm 1 mps 625 mmHg 57%
    10:00 +26°C° 0.1 mm 1 mps 625 mmHg 51%
    11:00 +28°C° 0.1 mm 1 mps 626 mmHg 45%
    12:00 +27°C° 0.3 mm 1 mps 624 mmHg 51%
    13:00 +26°C° 0.3 mm 1 mps 623 mmHg 57%
    14:00 +25°C° 0.3 mm 2 mps 622 mmHg 64%
    15:00 +24°C° 0.5 mm 1 mps 622 mmHg 66%
    16:00 +24°C° 0.5 mm 1 mps 622 mmHg 69%
    17:00 +23°C° 0.5 mm 1 mps 622 mmHg 71%
    18:00 +22°C° 0.3 mm 1 mps 622 mmHg 75%
    19:00 +20°C° 0.3 mm 1 mps 622 mmHg 80%
    20:00 +16°C° 0.3 mm 0 mps 622 mmHg 84%
    21:00 +18°C° 0.1 mm 1 mps 622 mmHg 86%
    22:00 +18°C° 0.1 mm 1 mps 622 mmHg 87%
    23:00 +16°C° 0.1 mm 1 mps 622 mmHg 88%
    Show more